TimeCDT,TemperatureF,Dew PointF,Humidity,Sea Level PressureIn,VisibilityMPH,Wind Direction,Wind SpeedMPH,Gust SpeedMPH,PrecipitationIn,Events,Conditions,WindDirDegrees,DateUTC
1:52 AM,34.0,26.1,73,30.27,10.0,East,4.6,-,N/A,,Clear,90,2013-04-03 06:52:00
2:52 AM,36.0,26.1,67,30.25,10.0,NE,5.8,-,N/A,,Clear,50,2013-04-03 07:52:00
3:52 AM,34.0,23.0,64,30.23,10.0,ENE,9.2,-,N/A,,Clear,60,2013-04-03 08:52:00
4:52 AM,33.1,21.9,64,30.26,10.0,ENE,6.9,-,N/A,,Clear,70,2013-04-03 09:52:00
5:52 AM,32.0,21.0,64,30.27,10.0,ENE,6.9,-,N/A,,Clear,60,2013-04-03 10:52:00
6:52 AM,30.9,21.0,67,30.30,10.0,East,6.9,-,N/A,,Clear,80,2013-04-03 11:52:00
7:52 AM,34.0,21.0,59,30.30,10.0,ENE,8.1,-,N/A,,Clear,70,2013-04-03 12:52:00
8:52 AM,39.0,19.9,46,30.31,10.0,ENE,10.4,-,N/A,,Clear,70,2013-04-03 13:52:00
9:52 AM,43.0,21.0,42,30.31,10.0,East,15.0,23.0,N/A,,Clear,80,2013-04-03 14:52:00
10:52 AM,46.0,19.9,35,30.30,10.0,East,17.3,-,N/A,,Clear,80,2013-04-03 15:52:00
11:52 AM,48.9,19.0,31,30.27,10.0,ENE,17.3,25.3,N/A,,Clear,70,2013-04-03 16:52:00
12:52 PM,51.1,18.0,27,30.25,10.0,ENE,15.0,-,N/A,,Clear,60,2013-04-03 17:52:00
1:52 PM,53.1,19.9,27,30.23,10.0,NE,13.8,-,N/A,,Clear,40,2013-04-03 18:52:00
2:52 PM,53.1,19.0,26,30.22,10.0,NE,15.0,-,N/A,,Clear,50,2013-04-03 19:52:00
3:52 PM,53.1,19.9,27,30.22,10.0,NE,10.4,-,N/A,,Clear,50,2013-04-03 20:52:00
4:52 PM,53.1,19.9,27,30.20,10.0,ENE,10.4,-,N/A,,Overcast,60,2013-04-03 21:52:00
5:52 PM,53.1,19.9,27,30.19,10.0,ENE,12.7,-,N/A,,Scattered Clouds,60,2013-04-03 22:52:00
6:52 PM,52.0,19.9,28,30.19,10.0,NE,11.5,-,N/A,,Scattered Clouds,50,2013-04-03 23:52:00
7:52 PM,46.0,24.1,42,30.20,10.0,NNE,6.9,-,N/A,,Clear,30,2013-04-04 00:52:00
8:52 PM,45.0,24.1,44,30.19,10.0,NE,8.1,-,N/A,,Clear,40,2013-04-04 01:52:00
9:52 PM,46.0,23.0,40,30.20,10.0,NE,5.8,-,N/A,,Scattered Clouds,50,2013-04-04 02:52:00
10:52 PM,45.0,24.1,44,30.19,10.0,East,4.6,-,N/A,,Scattered Clouds,80,2013-04-04 03:52:00
11:52 PM,45.0,24.1,44,30.18,10.0,ENE,8.1,-,N/A,,Mostly Cloudy,60,2013-04-04 04:52:00